Terminal Aerodrome Forecast
Issued by NWS St Louis, MO

Home | Current Version | Previous Version | Text Only | Print | Product List | Glossary On
Versions: 1 2 3 4 5 6 7 8 9 10 11 12 13 14 15 16
000
FTUS43 KLSX 270500
TAFCOU
TAF
KCOU 270520Z 2706/2806 18010KT P6SM OVC012
     FM271200 28012KT P6SM OVC015
     FM271800 30010KT P6SM OVC040
     FM280200 30006KT P6SM SCT060=

USA.gov is the U.S. government's official web portal to all federal, state and local government web resources and services.